Zurück zum Katalog

STARLINK-11739

AktivKommunikationVLEO
NORAD 64374·PAYLOAD·🇺🇸 United States

Gestartet Jun 13, 2025 von Cape Canaveral Space Force Station

Loading…

Nächste Überflüge (nächste 24 Stunden)

TLE

AktuellSource: CelesTrak SupGP

Epoche: Sep 14, 2026, 21:08 UTC

1 64374C 25127E   26257.88104167  .00092518  00000+0  71829-3 0  2579
2 64374  43.0007  23.7644 0001804 270.1825  17.5716 15.70801858    15

Verfolge STARLINK-11739 in Echtzeit mit AllMySat

Download on the App Store